Back to catalog

STARLINK-30988

AliveCommunicationsVLEO
NORAD 58529·PAYLOAD·🇺🇸 United States

Launched Dec 7, 2023 from Cape Canaveral Space Force Station

Loading…

Next Passes (next 24 hours)

TLE

FreshSource: CelesTrak SupGP

Epoch: Sep 14, 2026, 22:11 UTC

1 58529C 23191X   26257.92479167 -.00034838  00000+0 -12622-2 0  2571
2 58529  43.0026 114.6615 0001241 276.4817  68.0588 15.27586859    15

Track STARLINK-30988 in real time with AllMySat

Download on the App Store